Lid_Strength_Index
12 12 12 12 12 12 11 12 12 13 13 14 14 14 14 13 14 14 14 14 15 16 16 16 16 16 16 16 16 16 16 16
12 13 13 13 13 14 14 14 14 14 14 14 13 13 13 13 14 15 15 16 16 15 15 15 15 15 16 16 16 17 16 16
13 13 14 14 14 14 14 14 14 13 13 13 13 13 14 15 16 16 17 16 15 14 14 14 15 15 16 16 16 16 16 16
13 14 14 14 14 14 13 14 13 13 13 14 15 16 16 17 17 17 16 15 14 14 15 15 15 15 15 16 15 15 15 16
13 13 13 13 13 13 13 13 13 14 15 15 16 16 17 16 16 16 16 15 15 15 15 15 15 15 15 15 15 15 15 15
13 13 13 12 12 12 12 13 14 15 16 16 16 16 15 16 16 15 15 16 16 16 15 15 15 14 15 15 16 16 16 15
12 11 11 11 11 12 13 15 14 15 15 15 15 16 16 16 16 16 16 16 16 16 16 16 14 12 12 14 15 15 15 15
10 10 10 10 11 13 13 14 15 15 15 15 16 16 16 16 16 16 17 17 17 17 16 16 15 12 12 12 15 15 15 15
9 9 10 10 12 13 14 14 15 15 15 15 16 16 16 17 17 17 17 17 17 16 16 16 16 12 12 12 14 15 15 15
8 9 10 10 11 12 14 14 15 15 15 16 16 16 17 17 17 17 17 17 17 16 16 17 16 13 12 12 14 14 15 15
9 9 10 11 12 13 14 14 14 14 14 16 16 16 17 17 17 17 17 16 17 16 17 17 17 13 12 12 14 15 16 16
12 11 12 13 13 13 14 14 14 14 15 16 16 16 16 17 17 18 18 17 18 18 17 17 16 16 12 12 14 16 16 17
13 14 15 14 14 15 15 16 17 17 17 17 17 17 17 18 19 19 19 20 19 20 19 17 17 16 14 13 13 14 17 17
15 15 15 18 17 17 17 18 19 20 20 20 20 18 18 19 20 21 21 19 19 19 19 19 18 18 14 14 13 13 15 17
17 18 18 19 18 17 18 19 20 19 20 21 21 21 21 19 18 19 20 20 19 20 20 20 20 19 18 17 16 14 15 15
19 19 19 20 19 21 19 21 20 21 21 21 20 21 20 19 18 18 18 18 20 19 20 21 21 18 17 17 19 19 18 22
20 20 20 21 21 21 23 22 22 20 20 20 20 21 20 20 19 16 14 14 14 14 17 19 16 15 15 14 14 14 14 22
22 23 23 23 22 22 24 25 24 21 19 20 20 20 20 21 20 20 17 15 14 13 13 13 13 14 13 13 13 13 13 19
26 25 26 26 24 23 26 27 25 23 22 22 20 22 23 21 21 21 21 20 18 17 14 13 12 12 13 12 13 15 14 22
28 27 27 26 23 25 26 25 25 24 24 26 24 25 23 23 23 21 21 21 20 22 19 16 13 12 12 12 14 19 20 24